ARIANE 42P DEB *, 47108

Orbit data source: Space-Track

ARIANE 42P DEB *, 47108 is space debris in LEO originally from a launch on Mon, 10 Aug 1992 UTC launched from the French Guiana (FRGUI). Debris objects in space refer to the collection of defunct objects orbiting the Earth. Examples of debris include non-operational satellites, rocket bodies, and fragments generated from explosions, collisions, or faulty payload assembly.

Loading next visibility...
Identifier
47108, 1992-052P
Orbit
LEO
Country
Flag of FRFR
Related business
Manufacturer
ArianeGroup
Mission
Spacecraft
Bus & Motor
Unknown
Mass
Unknown
Launch date (UTC)
1992-08-10 (33 years ago)
Launch vehicle
Unknown
Launch site
French Guiana (FRGUI)
Object type
Payload
Rocket body
Debris
Shape & HBR
Unknown shape, 0.1 m
Radar Cross Section
Small (<0.1 m²)

Expand to show TLE details & history
Last TLE update: 1 week ago

TLE from 1 week ago
0 ARIANE 42P DEB *
1 47108U 92052P   26029.72347275  .00003218  00000-0  16537-2 0  9992
2 47108  65.8176 294.4288 1174105 343.8383  12.7950 12.44357291 81981
Epoch: 2026-01-29T17:21Z
TLE epoch observation values (Epoch: 2026-01-29T17:21:48.045Z)
Latitude
-0.00005°
Longitude
-94.99348°
Altitude
595.761 km
Speed
7.98 km/s
True Right ascension
19h 37m 42s
True Declination
0° 00' 00"
Sunlit
Object was in daylight at epoch
Visualization orbit readout
Latitude
Unknown
Longitude
Unknown
Altitude
Unknown
Speed
Unknown
Apparent Right ascension
Unknown
Apparent Declination
Unknown
Sunlit
N/A
Visualization observer readout
Local Sidereal Time
12:08:00
Azimuth
Unknown
Elevation
Unknown
Doppler factor
Unknown
Orbital elements
Apogee altitude
2,410.195 km
Perigee altitude
563.349 km
Semi-major axis
7,864.909 km
Eccentricity
0.11741
Inclination
65.8176°
RAAN
294.4288°
Arg. of periapsis
343.8383°
True anomaly
16.26614°
Mean anomaly
12.795°
Eccentric anomaly
14.47669°
Mean motion
3.11174 °/min
Orbital period
115.69 mins
BSTAR
0.0016537
Loading maneuver chart data...
Computing Atmospheric mass density...
Loading historical data...
Loading historical data...
Loading historical data...
Loading historical data...
Loading historical data...
Loading historical data...
Loading historical data...

Documentation

Showing up to 5 results
|